Location: North Evanston
(42.0634°N, 87.6976°W)
Time: 21:43:58
(UTC+00:00)

Transit 2A - Pass Details

Date: 14 May 2026
Orbit: 595 x 948 km, 66.7° (Epoch: 9 June)

Event Time Altitude Azimuth Distance (km) Brightness Sun altitude
Rises 20:53:14 0° 189° (S) 3,597 9.7 44.4°
Reaches altitude 10° 20:55:55 10° 183° (S) 2,643 9.1 43.9°
Maximum altitude 21:01:44 44° 113° (ESE) 1,234 7.2 42.9°
Drops below altitude 10° 21:07:16 10° 43° (NE) 2,511 8.4 41.9°
Sets 21:09:45 0° 37° (NE) 3,401 9.0 41.4°
